Theta_e
292 293 293 294 295 295 299 299 299 300 300 300 300 300 300 300 300 296 289 294 288 278 281 284 284 282 280 277 271 273 277 279 282 277 276 274 277 276 277 280 279 280 279 281 283 281 280 286 285 286 290 283 282 285
292 292 292 293 294 295 294 298 299 299 300 299 299 299 299 300 300 299 288 292 290 284 278 285 285 286 286 285 280 278 278 275 282 278 274 274 271 278 279 276 281 279 285 284 285 285 289 289 289 291 290 289 286 286
292 292 293 292 293 294 295 296 298 298 298 299 299 299 299 299 299 298 290 291 290 284 282 282 280 285 287 287 290 282 277 284 281 283 282 280 277 277 274 279 281 283 285 284 284 282 285 290 289 287 286 286 286 287
291 291 292 292 292 293 294 293 298 298 298 298 298 299 299 299 299 299 290 291 289 282 275 274 284 282 285 287 287 288 286 285 285 284 283 280 277 283 280 281 279 280 282 282 281 285 285 288 287 288 289 287 285 284
290 291 292 292 292 293 293 293 297 297 298 298 298 298 298 298 298 297 292 291 291 282 270 268 276 283 285 284 284 285 286 285 283 280 280 279 283 282 281 280 280 282 281 280 280 285 286 287 284 284 285 286 285 282
290 291 291 292 292 293 294 295 296 296 297 298 298 298 298 297 298 290 282 289 291 289 278 269 277 275 279 281 282 283 285 285 284 281 281 283 284 282 277 276 282 285 285 286 286 283 284 284 284 283 283 284 284 282
291 291 291 292 292 294 295 295 295 296 297 297 298 297 296 297 293 285 282 286 293 290 279 271 265 274 279 280 281 279 283 283 284 283 281 282 282 285 281 277 281 283 284 281 280 282 284 285 284 282 283 280 279 278
290 290 291 291 291 293 293 294 295 296 296 296 295 295 296 297 293 287 290 293 293 285 280 268 266 267 280 277 277 282 278 282 282 281 283 281 281 282 277 281 283 284 277 277 276 275 278 278 280 280 279 279 280 278
290 290 291 291 291 292 294 293 296 295 294 295 295 295 291 289 283 284 294 294 289 282 274 274 265 266 279 279 280 279 282 276 275 278 279 280 279 276 278 281 281 273 273 273 271 272 274 274 274 274 276 276 277 276
289 290 291 292 292 293 293 294 293 294 294 294 289 284 279 284 292 291 284 280 280 279 277 265 260 264 276 276 274 270 276 273 269 273 277 275 277 270 267 264 264 264 265 265 270 269 269 269 270 271 270 270 273 272
289 291 291 292 292 292 293 293 293 293 293 284 280 277 283 291 283 278 274 272 272 271 274 267 270 264 272 266 266 276 266 272 270 269 273 269 264 269 264 262 261 261 262 262 264 265 265 266 268 270 267 265 266 267
290 291 290 291 291 291 291 292 293 288 284 283 282 284 282 278 275 272 268 269 268 263 261 271 267 273 267 272 268 268 266 266 265 269 271 265 267 259 259 259 258 258 258 258 260 260 260 261 261 263 262 261 260 261
290 290 290 290 291 291 292 293 292 291 289 284 280 276 275 271 268 267 263 259 263 260 261 271 271 271 276 277 271 269 265 264 265 269 263 265 257 255 255 256 257 257 258 259 259 259 258 256 256 257 258 258 259 257
289 289 289 290 290 290 291 292 292 289 282 276 273 268 266 263 259 260 259 258 259 269 267 272 268 275 268 274 272 266 269 265 263 266 264 252 252 252 254 254 253 254 254 256 256 256 256 256 254 255 255 256 256 255
288 288 289 288 289 290 290 292 289 277 276 273 271 267 260 253 252 249 250 258 255 255 258 267 267 275 272 273 273 267 266 259 260 259 248 250 251 251 252 253 253 253 253 253 254 255 255 255 254 253 254 255 255 255
288 286 283 288 289 290 288 282 276 272 262 262 254 258 254 254 252 250 248 249 255 257 256 258 260 270 268 271 263 260 260 264 259 246 249 251 250 252 251 252 252 252 253 253 253 254 254 254 253 253 253 253 254 253
283 276 288 286 284 282 282 270 268 261 259 255 250 249 247 248 247 247 246 251 256 253 262 264 262 262 263 263 256 248 249 248 248 246 250 251 251 252 252 252 253 253 253 253 254 253 253 255 255 255 253 253 253 254
276 281 285 283 274 272 267 267 263 259 253 254 252 249 250 247 246 245 247 253 252 253 254 256 259 254 256 258 254 248 248 248 251 250 251 252 252 251 253 253 253 253 253 253 253 254 255 255 254 253 254 254 254 254
280 281 282 281 273 261 259 261 261 255 254 254 253 252 250 249 252 252 251 254 254 254 254 254 253 242 243 244 244 245 248 250 251 252 252 253 253 252 253 253 253 252 252 252 252 252 252 252 253 253 254 254 253 253
277 278 278 277 272 261 255 256 257 255 253 253 253 251 248 247 249 248 251 251 251 248 245 242 240 241 243 244 246 249 251 254 253 251 251 252 253 252 252 252 253 253 252 252 252 253 253 251 251 251 251 253 252 250
269 269 270 266 260 259 255 254 255 253 253 251 252 250 250 250 247 246 247 250 247 245 242 242 242 243 246 247 248 248 252 255 254 253 252 251 252 252 251 251 252 251 251 251 250 249 249 248 249 250 250 249 248 248
263 267 258 261 258 255 255 256 257 258 254 251 251 250 246 245 244 245 248 245 244 243 243 243 244 243 244 246 247 249 252 252 253 253 253 252 251 250 249 250 250 248 248 248 249 248 248 249 249 249 248 247 247 247
261 260 254 252 252 251 250 255 251 254 251 250 250 247 246 244 247 251 243 241 243 247 244 244 244 245 246 248 249 250 251 251 250 249 249 249 249 249 249 248 249 249 248 247 248 248 247 248 248 247 247 246 245 245
256 248 245 244 245 242 245 247 250 251 249 246 247 244 244 246 251 247 241 240 244 247 246 245 245 246 249 248 247 247 248 250 249 249 249 249 247 246 247 246 247 246 246 247 247 246 246 245 246 245 244 241 240 239
250 241 244 238 241 241 240 241 243 246 243 244 245 245 246 249 246 242 242 242 246 247 247 247 248 249 248 248 248 247 248 250 249 247 247 248 247 246 246 245 244 243 242 244 242 241 239 238 239 238 239 237 237 238
238 240 239 236 238 238 237 237 239 240 240 240 240 245 245 246 244 241 242 245 246 246 246 246 248 248 247 248 248 248 246 247 250 248 247 247 248 248 246 243 242 243 237 236 237 237 237 238 236 236 237 239 240 238
237 237 238 238 238 239 239 239 238 239 238 238 238 242 244 243 239 242 245 246 245 246 247 247 247 249 248 247 247 246 246 246 247 247 246 245 244 244 242 241 240 242 238 236 235 235 237 236 236 237 238 238 237 239
239 238 237 237 236 233 233 233 233 234 237 242 241 240 240 240 239 243 245 247 245 246 246 246 246 247 247 247 246 247 246 246 246 246 246 245 244 243 241 239 239 247 241 238 239 238 234 235 236 239 240 241 243 241
240 240 238 236 235 237 236 235 234 236 241 239 239 241 241 244 244 244 244 246 246 245 244 245 246 247 246 246 246 246 246 247 247 248 247 247 247 246 243 241 237 237 236 235 243 249 246 243 244 244 244 243 244 242
241 239 238 236 237 237 239 239 236 238 240 243 243 244 243 245 245 247 246 244 244 243 244 244 245 246 247 247 247 247 246 246 246 246 244 244 244 240 236 236 237 237 236 232 239 240 244 242 241 238 239 240 241 242
243 240 240 241 241 241 241 241 241 243 244 243 242 241 241 240 244 244 244 242 242 243 244 245 245 245 246 246 246 246 247 243 238 238 237 237 237 236 237 239 239 237 235 236 237 235 239 239 238 239 239 240 241 242
242 240 242 243 242 242 241 241 242 243 243 244 243 242 242 243 243 244 245 243 242 242 245 246 246 247 245 245 242 242 245 241 240 241 240 241 240 240 240 240 240 238 237 239 240 240 240 239 240 241 242 242 242 243
237 239 239 241 241 243 240 239 242 242 242 240 240 237 237 240 244 245 245 243 244 245 246 246 245 243 241 241 241 240 242 240 240 246 249 248 246 246 245 245 243 242 242 242 243 242 241 241 242 242 242 243 243 243
Wind_Speed
28 33 33 32 32 31 36 32 32 30 29 29 28 28 28 28 28 13 4 11 7 1 4 3 4 5 2 3 5 5 5 3 3 7 5 6 9 8 8 9 8 9 6 7 10 15 12 5 4 11 5 0 4 4
32 35 37 34 32 34 28 29 32 31 29 28 29 29 29 28 28 22 4 7 4 3 5 1 3 4 6 9 4 3 5 6 5 2 2 2 4 3 7 16 2 9 7 3 7 2 5 4 6 4 4 5 5 5
32 33 36 36 32 36 26 31 31 31 29 29 29 29 29 29 29 24 5 8 4 3 0 2 6 11 4 8 8 6 3 4 2 5 4 3 6 3 5 12 6 5 4 4 4 6 7 12 6 5 3 9 4 6
29 29 31 30 31 32 26 27 31 30 29 30 29 28 27 28 28 26 6 7 7 4 4 7 2 4 6 10 12 11 13 4 2 2 6 6 6 7 8 8 2 3 4 4 7 11 9 13 5 6 8 8 7 4
25 27 30 27 30 28 30 28 32 29 28 26 28 28 27 27 27 15 7 9 10 8 5 4 1 7 5 7 9 8 10 10 7 7 8 10 4 5 1 3 9 7 7 5 8 6 5 8 0 4 6 10 8 6
27 33 30 25 25 32 31 32 29 24 25 30 27 27 27 25 24 5 3 5 11 6 4 1 3 3 4 6 10 10 10 8 8 5 6 7 7 5 6 12 19 18 10 10 8 2 4 7 4 2 5 7 5 6
31 24 22 21 20 22 25 24 24 21 28 26 25 25 24 23 9 5 4 6 20 8 4 1 5 3 1 4 4 4 7 6 6 7 7 12 8 9 9 14 7 7 6 5 2 1 6 5 3 5 4 5 3 4
18 19 18 16 11 15 19 23 21 24 26 25 24 24 21 21 12 4 3 21 17 6 3 3 5 3 3 3 4 4 4 5 6 6 4 8 3 7 11 13 16 20 5 5 6 2 5 5 4 3 2 3 1 4
19 14 13 14 14 12 19 13 29 26 25 23 21 19 5 7 4 4 20 22 1 5 6 3 5 4 3 2 3 2 4 5 2 6 6 6 5 7 6 14 15 7 6 2 0 2 3 1 2 3 1 3 4 5
11 11 13 12 17 22 19 20 21 21 22 20 6 3 3 4 19 18 4 3 2 2 2 3 1 2 4 3 2 1 3 4 4 8 3 5 5 1 2 4 4 6 6 3 3 3 2 2 2 2 3 4 4 7
1 11 12 15 17 20 21 20 20 21 22 2 4 3 2 14 3 3 4 4 3 4 4 4 6 4 3 4 4 3 3 2 4 6 5 3 4 3 4 6 7 7 6 4 3 3 6 3 4 3 5 6 5 7
10 13 14 15 15 15 16 19 22 7 3 7 8 5 3 3 3 5 3 2 3 7 2 6 5 6 3 3 4 3 5 2 8 1 2 3 2 5 6 7 8 9 7 4 5 6 5 7 6 5 6 6 6 7
10 13 14 13 13 14 16 21 19 24 17 3 5 4 3 2 3 5 5 2 2 3 4 2 4 4 2 4 3 3 5 8 2 3 6 5 4 5 8 7 6 6 5 3 3 3 6 8 9 8 6 5 7 9
10 10 12 12 12 14 16 21 25 12 8 3 4 5 4 1 3 5 6 5 2 1 3 2 2 4 3 5 4 4 3 4 3 4 6 3 6 6 5 4 3 5 5 4 4 5 7 8 9 8 8 5 7 9
9 9 9 8 10 11 13 22 16 7 4 4 3 4 2 3 3 2 2 4 4 2 1 2 2 3 3 4 4 3 2 5 6 5 3 4 7 7 7 5 5 4 4 5 5 4 5 8 9 10 8 7 9 9
15 12 5 9 11 16 21 15 8 5 6 5 10 4 2 4 3 4 4 2 3 3 1 2 1 2 6 3 3 6 3 6 1 2 3 5 3 3 3 4 4 4 4 4 5 4 5 8 9 8 9 9 10 11
14 4 21 24 22 20 18 7 5 9 6 6 3 3 1 4 3 2 1 2 5 2 3 1 3 6 2 2 1 4 2 2 3 3 4 6 7 6 4 3 4 5 6 7 7 7 6 5 8 10 13 9 9 11
4 3 17 15 8 8 5 7 6 6 8 5 4 3 3 3 3 2 2 3 2 2 3 1 2 3 3 5 3 1 0 1 1 2 2 2 3 3 3 5 5 7 8 8 8 6 5 6 11 8 8 6 8 8
14 13 16 17 10 7 6 6 5 7 6 3 4 3 3 2 5 3 2 4 4 4 2 3 5 2 2 1 1 1 1 1 0 1 2 4 5 3 5 7 8 9 10 8 5 4 4 8 7 6 5 5 6 5
17 24 19 22 11 6 8 5 5 6 4 2 3 1 3 3 1 2 6 6 4 4 7 6 2 3 2 2 1 3 4 0 1 1 1 3 4 6 6 5 5 5 5 5 6 7 6 7 8 7 6 6 6 6
12 12 18 9 6 8 6 3 5 4 3 4 2 2 3 1 3 4 4 4 5 5 2 1 2 3 3 3 3 3 4 3 1 1 2 2 3 3 4 5 5 5 5 4 5 6 8 6 4 4 5 6 5 4
4 13 5 9 7 6 6 6 3 3 4 3 3 2 3 3 3 3 2 6 3 1 1 1 2 1 2 2 3 3 2 4 4 5 7 4 2 3 5 4 4 6 5 4 4 4 5 5 4 5 5 4 4 4
8 8 7 10 8 8 2 5 6 4 4 2 3 4 3 3 1 1 4 2 1 1 2 2 2 0 1 2 4 5 6 6 5 5 5 4 4 4 4 5 4 3 4 4 3 4 5 5 5 4 3 4 4 4
13 11 10 8 8 3 3 6 4 4 4 4 3 3 3 1 1 4 3 1 2 1 2 3 0 1 2 4 3 3 4 4 5 5 4 4 4 4 4 4 4 4 4 2 3 4 4 4 5 3 3 2 2 2
13 13 8 9 5 7 8 6 6 5 3 3 3 3 2 2 3 3 1 1 1 2 2 2 3 3 3 2 2 3 5 3 4 5 3 3 4 3 3 3 4 3 2 3 3 3 2 2 2 3 3 2 4 4
14 7 6 4 5 5 2 4 4 2 2 3 2 3 2 2 3 2 0 1 1 1 2 3 2 2 2 2 2 2 2 3 2 3 1 1 1 2 2 2 1 2 1 2 3 0 2 2 2 3 3 4 5 5
9 5 3 0 2 2 4 3 1 4 4 3 3 4 1 3 1 2 1 2 1 1 1 2 2 1 3 3 2 2 2 2 3 3 2 2 2 1 3 4 3 3 2 3 3 4 3 3 3 3 5 4 4 5
3 3 5 5 4 2 4 3 4 2 2 3 1 3 1 2 4 0 1 1 1 1 2 2 3 3 2 2 1 1 3 3 3 2 1 1 1 1 2 1 1 1 1 2 3 3 4 4 5 6 6 8 8 4
4 3 4 5 4 5 3 2 2 3 2 2 1 0 1 1 1 1 1 1 0 0 0 1 2 1 1 1 0 0 1 2 2 2 2 2 1 2 3 2 2 2 1 3 8 8 8 8 9 8 8 6 8 6
3 1 4 3 5 4 2 2 3 3 2 1 2 1 1 1 1 1 1 0 1 1 0 1 0 1 1 1 1 2 2 3 3 3 2 3 4 2 2 3 3 3 2 3 5 5 9 5 6 4 4 5 5 6
3 1 4 4 3 2 2 2 2 2 1 0 0 2 2 3 3 2 2 2 2 2 2 2 2 3 3 3 3 2 2 2 4 4 4 3 3 4 4 4 5 4 3 4 5 4 5 5 5 7 7 9 10 9
4 5 2 3 1 1 3 3 2 2 3 2 2 1 1 0 2 3 4 4 3 2 5 4 3 4 4 3 2 3 4 1 3 4 6 5 6 7 6 5 5 4 5 7 6 6 7 8 7 7 9 12 12 13
2 2 2 2 2 2 4 3 4 3 2 2 2 1 1 1 3 3 1 4 4 4 5 5 5 3 4 5 5 4 5 5 6 10 11 12 13 12 7 6 6 6 8 8 8 7 8 9 10 11 12 14 15 16
Wind_Direction
274 274 268 265 267 263 249 230 237 226 223 219 220 217 215 211 213 191 173 178 181 144 206 184 192 190 99 135 157 256 39 259 219 219 207 219 233 232 223 228 232 240 205 211 234 242 255 177 106 187 206 233 185 229
270 278 272 264 257 261 277 227 229 231 225 221 220 217 213 210 206 198 169 175 151 151 211 183 220 237 212 219 165 225 220 178 210 266 322 326 265 204 223 248 189 234 210 237 224 187 309 298 296 313 326 274 236 239
287 275 265 261 249 252 241 261 226 220 223 223 219 216 211 208 204 200 146 151 151 171 278 205 213 240 211 211 202 231 239 200 226 175 271 228 246 6 262 254 243 265 209 227 322 303 260 274 233 204 180 249 268 268
284 283 265 255 247 246 246 259 229 216 224 223 216 212 208 205 204 202 164 160 155 107 187 262 26 187 212 210 216 219 242 242 196 166 246 248 250 210 245 250 253 242 121 201 262 280 290 265 240 289 260 237 253 244
290 294 270 244 252 241 246 242 222 215 217 215 215 209 204 203 203 199 167 181 170 155 179 248 311 228 183 178 201 209 216 232 233 230 225 249 222 261 225 311 253 187 228 213 249 217 225 274 31 343 289 255 250 228
286 283 269 242 257 247 243 232 212 212 208 206 196 198 201 199 198 132 175 196 179 136 119 218 283 238 188 192 223 218 214 232 228 228 226 225 242 214 255 253 258 248 229 235 244 34 268 301 288 52 278 301 261 218
290 256 244 237 238 199 209 201 213 199 182 187 189 194 197 195 174 185 183 164 164 126 131 310 309 300 317 162 211 206 202 217 230 235 223 236 230 206 244 245 245 247 216 226 253 338 286 200 247 333 327 339 22 70
279 248 224 227 216 191 195 209 181 187 177 177 179 190 191 189 131 159 250 158 145 110 113 148 257 9 212 187 234 205 209 194 215 233 229 234 205 217 236 244 237 246 172 206 202 239 289 308 299 325 343 318 61 76
261 228 217 232 228 194 172 169 177 169 171 172 172 177 162 180 146 130 147 145 31 116 161 158 149 230 180 240 230 232 215 228 193 223 223 179 242 227 219 235 225 182 175 146 188 242 285 262 357 332 6 50 89 38
210 204 217 213 189 160 153 159 167 157 157 160 116 116 149 177 130 122 90 125 139 86 97 157 18 202 157 162 296 323 238 247 222 227 140 195 219 175 211 128 78 45 30 2 193 175 71 46 19 339 44 11 64 96
141 157 156 149 153 154 158 161 159 159 153 73 109 132 122 139 72 78 131 129 106 146 174 199 176 174 234 128 207 223 235 254 281 250 202 188 270 109 70 60 36 22 23 25 4 52 61 40 347 28 39 35 32 56
118 129 131 131 135 144 157 161 161 124 95 151 117 101 96 109 88 125 144 93 119 203 276 172 213 192 243 114 127 250 184 97 234 4 273 230 220 26 22 26 13 359 1 13 9 49 46 63 41 65 48 27 32 53
108 131 132 133 137 142 154 160 113 129 129 106 71 87 91 9 118 154 153 338 173 196 210 148 174 152 146 177 206 159 193 220 100 192 230 217 65 19 3 2 345 352 1 24 47 89 78 70 51 39 57 31 61 63
101 115 126 134 145 155 161 137 145 99 67 87 120 115 146 130 218 176 165 166 223 56 70 155 154 192 184 187 210 220 224 87 228 206 242 3 358 333 338 350 321 337 357 20 24 42 60 74 74 58 43 24 68 67
97 102 118 130 136 145 156 152 105 45 56 77 89 133 159 154 53 183 198 92 11 304 345 196 293 205 204 236 207 138 167 253 209 235 337 323 332 328 343 344 349 2 7 19 8 44 81 86 85 74 52 50 69 76
85 64 69 108 110 100 92 66 36 71 60 59 32 85 19 63 338 30 17 39 341 325 354 32 196 216 222 250 125 212 146 222 83 304 294 305 308 335 335 359 11 11 37 42 46 65 72 80 84 81 76 60 62 71
59 10 104 91 80 67 50 69 49 49 69 55 51 55 89 67 90 101 60 336 322 341 144 197 166 221 298 11 318 9 290 345 317 299 315 338 342 341 0 24 51 63 69 65 68 59 65 76 98 87 75 61 66 66
59 52 75 79 84 63 41 39 76 66 73 53 64 357 45 46 78 7 321 315 357 23 14 124 43 77 197 191 196 203 194 253 274 282 326 342 352 342 10 67 58 64 63 60 52 46 61 86 78 72 71 68 74 68
65 52 55 55 77 86 68 27 50 82 62 89 93 68 73 91 63 32 359 8 50 25 42 31 71 130 193 207 194 287 288 227 317 34 0 16 41 33 56 60 55 53 55 52 56 62 56 53 62 63 62 66 73 54
61 42 40 43 55 72 62 12 57 74 77 107 73 81 89 76 251 22 29 21 37 42 41 45 149 219 201 262 318 301 300 188 150 101 45 41 27 34 39 58 66 71 74 64 51 46 57 58 41 41 41 48 60 53
31 0 16 45 49 55 82 22 65 105 117 81 191 80 86 74 43 30 21 2 58 32 68 187 226 257 271 253 257 250 275 281 227 114 115 79 38 56 54 44 47 50 64 61 72 61 50 52 36 38 55 61 59 51
2 16 47 11 73 49 69 19 60 91 76 141 76 68 44 42 29 21 319 45 61 257 198 223 260 270 343 352 305 324 0 57 57 81 76 90 77 59 53 37 62 62 53 43 50 60 63 51 45 50 55 44 36 35
25 33 49 14 72 46 343 348 66 23 71 45 37 51 27 50 8 143 71 100 199 271 236 236 250 237 81 358 32 25 39 76 75 67 70 72 59 54 67 54 36 74 77 44 38 57 60 44 48 52 44 41 29 21
33 46 36 40 28 53 342 27 16 48 57 48 59 76 32 46 117 62 75 310 265 332 358 324 97 103 60 36 33 23 16 76 88 66 50 92 92 56 56 49 45 57 39 41 43 46 40 35 26 32 24 26 3 4
70 3 25 9 5 40 35 19 4 45 63 10 77 58 20 344 78 63 72 294 4 5 343 338 53 69 93 99 65 45 21 39 91 99 34 78 109 104 74 58 56 46 2 66 37 35 358 345 9 12 1 359 333 322
69 357 47 8 357 61 356 62 33 19 12 57 23 316 22 73 76 108 261 339 354 358 5 7 22 101 73 27 102 68 22 354 38 87 106 339 45 100 128 127 28 313 32 122 134 110 308 284 278 322 316 326 326 327
58 351 341 95 122 74 47 27 31 61 57 39 323 341 44 80 169 243 201 27 25 11 14 355 319 59 125 121 101 61 45 38 49 74 92 70 52 62 146 148 195 232 168 192 191 189 234 285 296 295 291 289 260 257
119 50 61 315 40 32 101 50 46 41 332 325 331 32 73 137 201 170 359 39 81 71 63 43 38 38 64 65 68 123 99 96 102 110 117 117 113 108 111 133 227 353 167 205 224 214 213 231 252 268 268 272 280 247
47 336 78 22 28 45 60 107 245 252 261 90 110 163 228 323 273 259 311 337 62 63 100 108 73 69 108 120 125 19 214 170 180 222 263 291 312 222 208 235 306 319 286 287 283 274 241 233 239 244 247 251 270 270
334 85 85 59 62 17 282 172 241 252 249 189 208 138 310 267 249 217 237 117 137 203 175 70 120 259 171 251 244 212 201 213 216 190 178 228 230 249 219 262 288 276 249 233 264 282 295 313 316 318 291 280 271 277
301 73 72 56 80 285 292 292 258 237 218 100 298 124 221 290 295 219 189 180 153 153 156 208 227 219 219 205 210 229 242 202 205 218 219 243 259 263 264 256 245 234 228 237 251 251 264 266 245 267 278 280 280 276
15 42 53 86 295 319 7 3 338 35 359 48 6 328 325 277 267 237 184 147 155 201 225 216 225 241 209 223 229 247 241 239 224 229 238 241 247 245 244 246 245 229 233 244 244 246 245 253 270 270 277 281 284 284
46 30 54 59 21 16 21 344 25 2 32 19 328 321 271 268 243 264 230 220 185 190 206 210 220 220 221 217 224 241 234 229 235 251 253 250 247 250 241 230 227 227 237 245 249 247 257 259 268 273 276 277 279 280